Weather in Nova Haleshchyna

Ukraine / Poltava Region     49°10′04″N   33°45′18″E
temp.,
°C
wind,
m/s
gust,
m/s
humid.,
%
clouds,
%
prec.,
mm/h
press.,
hPa
HPBL,
m
18 may, tue
tue1800:00+15ssw3492100 0.0 100568
03:00+14ssw2292100 0.0 100431
06:00+14sse3492100 0.0 1004104
09:00+17s5679100 0.1 1004568
12:00+21s5760100 0.3 10031405
15:00+21s796097 2.0 10021387
18:00+19s797064 1.0 10011198
21:00+14se51192100 1.7 1001416
19 may, wed
wed1900:00+13sse59954 0.8 1001267
03:00+11se410961 0.8 1002277
06:00+11se499726 0.0 1002285
09:00+16sse577318 0.0 1003893
12:00+19sse575778 0.9 10031739
15:00+19ssw4556100 1.1 10031443
18:00+19sw235797 0.1 10031093
21:00+14w468584 0.8 100492
20 may, thu
thu2000:00+12w5997100 0.2 1005326
03:00+12w5991100 0.3 1006648
06:00+12w5992100 0.3 1007668
09:00+12w588995 0.4 1008698
12:00+15w787275 0.1 10101063
15:00+19w575327 0.2 10101791
18:00+18nnw4462100 0.0 1011745
21:00+13sw3491100 0.4 1013125
21 may, fri
fri2100:00+13nne3590100 0.2 1013127
03:00+12ene4795100 1.9 1014217
06:00+12ene51090100 0.4 1014301
09:00+15ene71073100 0.4 1013527
12:00+15ene51079100 0.6 1013616
15:00+19ne7965100 0.9 10121173
18:00+18ne51076100 0.0 1011460
21:00+16ne6127989 0.1 1012444
22 may, sat
sat2200:00+13nne61292100 0.6 1012332
03:00+13nne61196100 1.1 1011335
06:00+13nne4996100 0.3 1011344
09:00+17ne5785100 0.3 1010578
12:00+20nne557098 0.0 1011982
15:00+22n4467100 0.0 10101021
18:00+22nnw4572100 0.0 1010698
21:00+18nnw368311 0.0 1010144